GFSWCAN_850_spd_285.txt.gz
Wind_Speed
27 28 28 30 29 28 30 28 26 22 22 23 23 27 28 21 21 21 28 25 25 20 27 26 26 19 14 9 8 5 4 4 3 5 5 4 5 6 2 4 6 9 10 5 7 6 11 11 7 7 2 10 21 15
26 27 28 29 28 25 25 25 24 20 22 25 27 26 25 24 20 20 27 27 22 25 22 30 28 32 29 31 18 15 5 6 11 4 4 2 3 2 3 4 4 5 6 6 11 7 2 25 2 12 12 21 15 12
25 24 25 24 23 22 24 23 23 21 23 25 25 23 21 23 23 23 26 26 23 19 29 38 34 31 34 29 28 8 9 10 9 7 4 2 5 4 6 6 5 4 5 3 1 7 12 15 18 13 13 13 12 9
24 24 24 24 23 22 23 23 23 23 24 25 24 25 24 24 22 22 27 27 24 13 5 14 21 18 16 18 21 24 24 11 9 11 4 2 3 8 3 1 4 2 10 6 4 7 1 15 28 20 18 12 11 10
25 24 23 23 23 23 23 23 23 24 26 27 27 28 25 23 22 24 27 29 27 19 5 9 19 19 14 14 13 19 21 16 10 6 3 3 2 2 2 1 3 9 7 6 5 5 3 3 22 30 22 17 11 10
25 25 25 23 22 23 23 24 24 26 28 27 27 28 26 25 23 25 15 20 24 26 8 3 6 6 7 8 10 13 14 14 8 5 3 5 4 5 3 3 7 23 15 21 4 8 5 6 10 19 24 16 12 9
25 24 24 24 22 22 22 23 24 24 25 25 27 27 25 27 24 20 8 10 9 15 5 3 2 1 4 6 5 6 12 7 6 3 5 4 5 7 2 4 6 12 17 17 11 13 7 12 8 15 14 15 11 9
26 25 24 24 22 21 22 20 21 22 23 24 30 26 25 25 18 22 28 26 18 12 7 2 2 3 8 3 2 5 5 5 5 4 2 3 2 3 5 10 6 4 10 15 17 11 6 13 15 15 15 13 11 8
26 24 24 22 21 18 19 18 19 22 22 24 18 21 23 16 10 10 14 10 15 7 2 3 4 3 8 3 3 3 4 2 3 2 2 4 3 6 7 5 12 15 13 16 18 10 12 14 14 15 14 12 9 8
25 24 24 21 20 19 17 16 19 21 20 23 22 11 5 4 3 1 3 3 6 5 3 1 3 1 5 3 2 3 1 1 2 2 1 3 5 20 20 15 7 9 15 21 22 14 14 14 15 13 10 7 7 7
24 23 22 20 19 16 14 14 17 19 19 11 4 4 4 9 3 2 2 2 1 3 1 2 2 3 4 2 2 3 1 0 1 1 1 2 4 2 7 19 7 12 15 18 15 4 11 8 10 10 10 9 7 6
24 23 20 18 17 13 12 11 13 17 17 13 7 4 5 4 2 0 1 3 1 3 3 3 3 3 3 3 2 1 1 0 3 1 1 3 3 7 2 16 21 15 16 16 8 11 11 8 6 8 7 6 6 5
23 22 19 17 15 12 10 10 16 14 14 7 4 2 3 2 1 5 3 2 2 4 7 5 2 3 3 2 4 1 2 2 1 1 3 4 5 3 5 18 22 20 17 17 15 12 9 6 6 5 5 5 5 4
22 21 18 16 13 11 8 9 12 10 6 3 3 3 4 3 4 3 2 1 3 3 11 11 4 2 2 2 1 2 1 1 2 2 5 2 3 7 18 18 23 24 19 16 12 10 6 5 4 4 4 3 3 3
23 21 18 15 14 10 9 8 11 10 4 4 4 5 5 4 3 4 5 4 2 10 17 6 4 2 1 2 1 2 1 4 5 4 2 3 11 17 20 19 18 20 19 16 12 8 5 4 4 4 2 2 3 4
24 18 17 16 14 9 10 12 10 8 4 5 6 2 2 1 1 4 8 6 9 18 10 3 2 2 2 2 2 6 2 5 3 3 4 4 16 18 20 17 14 14 15 14 10 6 5 5 3 2 1 2 3 4
23 17 14 15 11 11 11 8 4 6 6 5 4 7 6 4 5 4 9 8 15 16 2 2 3 3 2 1 3 4 4 3 3 6 3 14 18 19 19 17 17 17 14 10 8 7 6 3 2 1 2 3 4 5
24 23 14 14 12 11 7 7 5 6 7 7 3 4 6 5 3 4 7 13 15 8 7 3 6 3 4 4 3 3 9 6 3 4 12 17 18 17 15 17 17 13 10 10 8 6 4 3 1 1 4 6 6 6
26 21 16 16 15 10 7 9 7 4 5 3 4 5 5 4 7 6 8 16 12 10 5 5 2 3 4 5 5 5 5 6 8 13 16 18 17 16 16 15 13 11 10 8 6 5 4 2 1 4 6 7 6 6
21 19 17 17 13 8 6 4 6 3 2 3 3 4 3 3 3 5 9 16 14 6 4 4 5 4 6 5 9 10 6 12 17 20 18 19 17 15 14 12 12 10 9 8 6 4 2 1 3 5 6 7 7 6
19 18 11 10 15 7 3 4 3 1 2 3 3 3 2 2 3 5 8 15 10 6 3 13 14 13 13 14 11 6 12 18 21 16 23 22 18 16 14 13 11 9 7 6 4 2 1 3 5 6 8 8 7 7
20 17 13 17 4 6 2 3 3 4 2 2 3 2 2 2 4 5 6 10 7 10 11 11 16 13 11 9 7 9 15 19 17 6 16 16 18 17 16 12 11 8 6 4 3 3 3 4 6 7 8 7 7 5
16 13 7 7 4 2 2 7 2 3 1 2 2 1 2 2 3 4 4 7 8 12 18 21 23 13 7 5 7 15 18 18 13 11 15 14 11 11 11 11 9 7 5 4 5 4 5 5 6 7 7 7 6 5
12 7 4 5 2 3 5 2 3 3 3 1 1 3 2 2 2 2 3 5 9 10 10 18 19 21 10 4 12 16 19 18 13 14 14 14 13 13 11 9 8 7 6 6 5 5 5 6 7 7 7 7 7 6
5 1 2 2 3 4 3 1 0 1 2 3 2 2 1 2 1 2 3 4 7 8 10 11 19 21 20 16 8 15 18 17 14 15 15 14 13 11 10 9 7 6 6 5 4 3 4 6 6 7 6 5 4 3
2 1 2 4 2 3 4 3 4 5 3 2 3 1 1 1 2 4 3 3 4 6 4 9 17 21 20 18 16 17 18 18 15 13 14 13 10 5 6 6 5 5 5 3 3 4 5 6 6 5 4 3 2 3
3 4 3 4 4 5 2 1 3 2 4 4 2 3 2 2 4 3 3 3 6 10 8 7 12 18 18 16 14 14 18 19 17 13 12 13 13 10 7 5 4 4 3 2 3 5 6 6 4 3 2 2 2 3
2 5 3 7 4 4 3 2 3 4 3 4 6 3 4 5 3 2 3 13 16 15 10 9 10 16 20 15 11 13 20 20 18 15 14 13 12 10 8 6 5 4 2 2 4 5 5 3 2 0 0 1 1 1
2 4 5 2 2 3 5 4 3 4 5 8 3 3 3 4 5 12 16 18 16 11 6 6 10 16 18 17 14 15 18 19 18 17 16 13 11 11 9 7 6 4 2 3 4 4 2 1 2 3 2 1 1 1
2 6 2 3 3 3 3 5 3 4 7 9 5 5 6 8 10 15 15 12 7 1 6 10 11 14 15 16 17 19 18 16 14 11 8 6 7 7 8 8 6 3 2 3 4 2 0 0 1 2 1 0 2 2
3 3 1 1 2 2 3 5 7 7 6 6 11 12 11 9 8 6 7 4 3 6 9 11 13 13 12 13 15 16 15 13 11 9 7 7 7 7 8 8 5 3 2 3 3 2 2 2 2 3 3 4 4 4
2 1 0 1 1 3 2 1 2 2 2 3 3 3 3 4 3 3 3 3 6 8 10 10 10 10 12 13 12 10 9 9 9 8 6 7 7 8 8 6 4 2 3 3 2 2 2 2 2 3 4 4 5 5
1 0 1 2 2 2 2 2 1 2 3 2 2 2 2 3 2 3 1 3 7 9 10 11 11 13 13 13 12 9 8 8 9 8 8 9 8 7 6 4 2 2 2 2 2 2 2 3 3 4 4 4 5 4

GFSWCAN_850_spd_291.txt.gz
Wind_Speed
33 31 30 31 29 30 30 26 25 23 21 19 19 18 19 19 17 18 25 20 23 24 28 29 28 27 20 11 10 7 6 3 3 4 3 5 4 5 2 10 5 9 8 6 6 6 11 11 6 5 1 4 1 5
33 32 31 31 29 28 28 26 26 22 20 20 20 20 19 20 19 19 26 23 21 25 24 35 39 35 33 31 28 13 12 8 10 5 4 4 5 3 7 7 7 5 7 3 10 6 4 12 4 5 0 3 2 6
34 32 33 31 29 28 26 26 26 24 22 22 21 21 20 20 21 22 25 26 26 21 28 26 20 17 21 27 30 16 17 18 15 20 5 3 7 2 6 7 6 6 7 3 1 5 12 9 12 11 9 5 6 7
35 34 32 30 29 27 25 25 24 24 23 22 22 22 23 23 23 22 26 25 23 17 8 19 24 22 22 20 20 24 33 19 12 6 6 4 4 6 5 5 4 3 8 7 10 14 10 14 14 15 18 10 10 11
35 34 31 29 26 25 24 23 22 22 22 21 22 22 22 23 24 25 28 29 27 21 9 20 24 32 26 19 18 18 22 17 7 3 5 4 3 2 4 2 9 8 8 6 7 6 3 2 1 7 16 15 17 14
33 30 28 27 26 25 24 23 22 22 22 20 20 19 21 22 22 25 15 9 12 23 10 3 8 10 11 13 13 12 12 10 7 4 4 4 3 3 4 4 2 7 9 13 8 4 5 5 6 4 12 14 16 13
31 29 27 26 26 25 24 22 22 21 19 19 19 20 23 23 19 10 8 10 16 20 6 4 3 2 2 1 1 2 5 5 6 3 5 5 3 5 3 9 6 12 12 9 8 8 3 5 2 6 11 14 14 11
30 29 29 27 26 25 23 22 21 19 18 18 20 22 24 24 24 21 21 25 27 17 7 3 0 2 1 1 2 2 3 3 6 4 1 2 1 4 5 6 6 7 4 4 6 8 4 3 6 9 13 15 13 10
31 30 29 28 27 25 22 20 18 17 18 19 21 25 23 13 5 7 11 14 9 8 4 2 3 3 2 2 2 2 2 2 1 2 1 1 3 5 6 6 6 5 2 3 5 5 5 7 10 12 13 13 10 8
32 31 29 27 25 23 19 17 15 14 17 17 19 5 4 4 9 13 4 2 1 3 3 2 1 1 2 1 1 2 1 2 2 1 3 3 5 14 14 12 8 6 3 4 11 7 8 9 11 11 10 9 7 6
26 26 26 25 23 20 17 14 12 13 14 9 3 4 8 10 6 2 2 2 1 2 2 1 1 2 1 2 1 2 2 1 2 2 2 2 3 0 5 8 6 8 3 8 4 3 6 7 10 10 9 8 6 5
26 26 25 23 22 19 16 12 11 13 7 7 10 17 10 2 2 2 1 1 3 1 2 2 1 2 1 1 2 1 2 1 2 3 2 3 1 5 7 2 7 8 9 10 6 8 8 9 8 7 6 5 5 5
27 27 25 23 22 18 16 13 14 12 9 12 4 3 2 2 3 4 3 2 2 4 5 3 2 1 1 0 1 1 2 2 3 2 3 3 6 6 2 8 10 12 14 9 12 11 9 7 6 5 4 4 3 3
29 27 26 23 22 20 16 14 14 10 5 3 3 4 4 4 5 4 3 1 2 3 5 5 2 2 1 2 1 2 1 2 2 3 4 1 7 2 7 11 14 15 13 13 12 10 7 6 5 4 3 2 2 3
30 28 26 24 22 22 17 16 13 11 4 4 4 4 5 5 3 1 1 2 2 5 7 3 2 2 1 2 1 1 2 3 4 3 1 2 2 5 12 15 14 15 15 13 10 7 6 5 3 2 2 1 2 4
29 27 29 25 24 23 19 18 17 10 4 4 6 4 4 2 4 3 4 5 5 7 6 2 1 2 3 2 3 5 2 4 1 2 2 6 5 9 11 14 14 14 13 10 8 6 4 3 2 1 1 3 4 5
29 31 29 24 28 25 23 20 15 6 5 5 6 12 8 6 6 2 4 4 10 10 2 3 3 3 2 2 3 4 4 2 1 5 9 5 10 12 13 15 15 14 11 9 6 4 4 3 1 1 3 4 5 6
32 29 27 30 35 27 23 12 7 6 7 9 5 4 8 7 3 3 4 8 10 7 4 2 4 4 4 4 3 3 6 7 9 8 5 9 13 14 13 13 14 13 10 8 6 5 3 2 2 3 5 5 6 6
35 26 33 41 35 25 10 10 7 4 8 6 9 11 7 6 9 11 6 8 11 9 3 3 4 4 4 5 3 3 5 6 6 3 8 11 14 15 13 13 14 12 9 7 6 5 3 4 5 5 6 6 6 7
24 38 41 35 28 9 7 5 8 5 3 2 4 3 3 3 3 4 7 9 12 5 6 4 5 4 5 5 5 6 10 11 7 8 11 14 15 15 14 14 13 10 9 8 6 5 5 5 6 7 7 7 7 7
48 41 34 32 15 5 5 5 5 3 3 2 3 2 3 3 2 3 4 9 8 6 4 11 10 12 13 13 13 14 16 12 11 11 14 18 18 17 16 15 12 11 9 7 6 6 6 6 7 7 7 8 8 8
39 35 31 18 4 7 3 6 3 2 1 2 2 2 3 2 2 3 4 8 6 8 9 9 9 13 16 18 19 17 13 9 12 11 9 15 19 19 18 16 14 11 9 7 7 6 6 7 7 8 8 8 8 7
36 25 15 6 4 4 1 4 2 1 2 1 1 2 2 2 2 2 4 6 7 10 14 17 18 19 18 15 12 11 10 12 16 12 11 15 15 13 12 13 12 10 9 7 7 7 7 7 8 8 8 8 7 7
23 8 4 5 2 3 4 2 1 1 1 2 1 2 2 1 1 3 3 4 8 9 10 11 12 13 14 16 15 12 10 16 16 10 11 14 13 13 12 11 11 9 9 8 7 8 8 8 8 9 8 9 9 8
4 1 2 2 3 4 3 3 1 2 2 3 2 2 1 1 2 3 3 3 4 5 8 10 10 11 11 9 9 6 12 16 15 10 12 14 13 12 13 12 11 10 9 9 8 8 8 8 9 9 9 8 8 7
3 1 1 3 3 3 4 4 4 5 3 3 3 1 1 1 2 4 2 2 3 5 10 12 9 7 10 11 7 3 10 13 12 10 11 13 12 9 8 9 9 8 8 9 8 7 7 8 8 9 8 7 5 5
2 2 2 3 3 4 2 1 2 2 3 4 3 3 2 2 4 2 3 4 5 13 17 17 13 10 9 11 11 8 6 12 12 10 8 11 12 12 9 7 6 7 6 7 7 7 7 7 8 7 7 6 6 5
1 3 2 4 3 3 1 2 3 3 2 3 5 3 3 3 1 3 3 12 18 22 20 16 12 11 11 12 13 12 9 11 13 12 10 12 13 12 9 8 7 6 5 6 6 6 6 7 6 5 5 4 4 4
1 2 4 2 2 3 4 3 2 2 3 5 2 2 2 3 5 9 16 19 19 16 13 8 5 6 10 13 13 12 11 12 15 15 15 14 13 12 11 9 6 6 6 5 4 5 5 4 4 3 3 3 4 3
0 4 2 2 2 3 2 4 3 4 5 7 5 5 5 7 9 13 13 14 11 10 8 4 1 5 9 11 11 11 13 14 14 11 11 9 7 6 8 8 8 8 6 4 4 4 3 3 3 3 3 3 4 3
1 3 2 2 2 2 3 5 7 8 7 5 8 9 8 7 7 7 12 10 8 7 6 5 5 5 9 10 9 9 12 13 12 8 8 7 5 6 7 9 9 8 5 3 3 3 3 3 3 4 4 4 5 5
0 1 1 2 0 3 5 2 2 2 2 2 2 2 3 3 3 4 9 7 5 5 5 5 5 6 7 8 9 9 10 12 10 8 6 6 6 7 9 10 9 7 4 3 4 4 5 4 5 6 6 6 6 5
1 1 2 2 2 1 2 3 1 2 2 2 2 2 2 2 2 4 9 6 3 2 2 3 4 6 8 10 10 9 9 9 10 8 7 7 8 9 10 9 7 5 3 4 4 4 5 5 5 6 6 6 6 6

GFSWCAN_850_spd_294.txt.gz
Wind_Speed
39 37 36 35 34 33 32 31 30 29 28 29 24 19 19 18 17 16 20 19 18 18 29 33 31 29 21 17 7 5 7 0 3 2 3 3 2 4 1 4 6 7 7 4 4 5 9 8 4 4 2 3 3 4
38 36 36 34 34 32 32 30 29 27 27 28 25 21 20 20 19 18 23 20 23 21 30 40 40 39 38 36 27 16 13 13 9 4 2 1 3 1 4 7 3 1 6 3 7 6 2 14 1 8 4 3 2 5
38 37 36 34 34 33 30 31 28 26 26 25 26 24 22 21 19 20 22 23 24 20 27 19 14 21 21 19 15 15 13 10 11 18 6 4 9 3 5 6 2 2 5 3 1 3 2 11 11 12 11 10 7 6
40 37 35 34 34 33 31 28 25 24 25 21 23 23 22 22 21 20 23 23 22 14 9 20 22 21 18 14 15 20 28 27 21 10 5 3 3 7 2 1 2 4 4 4 5 8 10 10 6 8 13 11 8 8
40 37 36 35 32 30 28 25 23 22 23 22 23 21 20 20 19 22 25 27 27 19 7 20 27 28 27 26 22 20 22 21 8 3 4 3 4 1 2 1 4 7 6 4 4 2 2 3 2 5 6 12 12 13
38 38 35 32 30 27 27 25 22 22 22 22 22 21 20 18 19 21 10 6 5 11 7 3 7 10 11 11 9 9 10 8 7 4 3 5 3 1 3 2 2 12 10 11 3 9 6 5 6 5 5 8 12 13
37 33 32 29 27 26 25 23 23 23 21 21 21 20 19 20 19 14 9 12 18 24 6 4 3 3 6 6 4 2 3 4 6 4 4 3 1 3 2 3 5 13 14 11 10 6 4 6 0 2 5 10 11 12
34 31 29 28 26 26 25 25 26 23 19 20 20 21 22 25 26 19 22 21 20 16 8 3 2 2 5 2 2 2 2 2 5 3 3 1 1 2 3 1 6 10 9 3 4 4 2 0 5 7 9 11 12 10
36 32 31 29 26 26 26 25 25 18 15 17 19 19 26 10 5 5 8 13 12 10 4 3 2 3 4 3 3 2 1 2 1 1 1 1 2 4 2 3 6 8 6 5 2 2 4 5 8 10 10 11 9 7
36 36 34 30 28 26 24 24 20 14 14 15 15 7 5 3 5 12 3 1 1 3 4 3 1 2 3 3 1 3 1 1 2 1 3 2 3 11 9 9 11 10 7 1 7 5 6 8 9 10 10 8 6 4
30 29 28 26 26 25 22 21 16 10 13 8 3 4 9 10 9 1 2 2 2 2 5 3 3 2 2 2 2 2 2 1 2 0 1 2 3 1 7 8 3 5 2 6 3 2 3 4 8 9 8 6 4 3
31 28 26 22 22 20 21 18 15 14 9 5 6 15 10 2 2 1 2 1 3 3 4 2 4 3 2 1 2 1 1 0 2 3 1 3 2 3 6 1 4 5 8 6 5 6 6 7 6 5 4 3 3 2
30 29 26 23 22 21 20 18 16 14 9 8 4 2 2 3 1 4 4 3 2 6 6 4 1 2 0 0 2 1 2 2 2 1 3 3 3 6 3 6 8 10 10 7 9 7 7 6 5 4 2 2 2 2
32 29 27 25 23 22 19 19 20 13 8 5 3 4 4 4 4 3 1 2 2 4 7 5 2 2 2 1 0 2 1 1 2 2 4 1 4 1 7 9 11 12 9 10 10 8 6 5 4 3 3 3 1 1
32 30 29 27 23 22 18 25 19 16 7 5 4 4 5 7 4 2 3 3 2 6 7 3 2 2 1 1 1 1 1 3 4 3 1 0 3 5 11 13 12 13 12 11 8 6 5 5 4 3 2 1 2 3
29 28 30 28 25 24 21 28 21 15 6 5 6 4 4 1 3 2 5 4 5 7 6 2 2 0 3 2 2 5 2 4 3 2 2 5 3 8 13 14 12 13 13 10 8 6 4 3 2 2 2 2 4 6
28 31 30 28 26 21 35 24 15 8 7 5 6 12 13 7 6 2 5 6 8 10 2 2 3 6 1 1 3 3 4 2 1 6 10 8 7 11 14 15 15 15 13 10 7 5 3 3 2 1 2 4 6 7
31 32 26 28 27 38 32 13 7 6 6 10 4 4 9 7 5 4 6 8 11 8 5 3 3 3 4 4 3 3 8 7 9 11 10 6 12 13 13 15 16 15 12 10 7 4 4 4 3 1 4 6 7 8
32 29 27 30 43 23 7 9 6 5 11 6 9 12 7 6 9 10 8 8 11 8 3 3 3 3 4 4 2 1 4 4 8 10 5 8 14 14 14 15 14 13 12 10 6 5 5 4 2 3 5 6 8 9
24 28 27 41 36 7 5 5 8 4 3 3 3 3 3 4 5 4 8 9 13 6 6 4 4 3 5 7 7 7 6 9 10 8 7 11 15 17 15 14 14 13 12 9 8 7 6 4 4 5 6 8 9 9
33 43 42 39 19 6 4 6 5 3 3 2 4 3 2 3 3 4 5 11 9 6 3 11 13 10 14 14 12 13 13 14 12 9 7 14 17 17 16 15 14 13 10 9 8 7 6 5 5 6 7 9 9 10
37 34 33 18 5 4 3 4 3 2 2 2 2 3 2 2 3 4 5 9 6 8 8 6 10 12 14 15 15 15 15 15 12 10 11 12 19 19 19 17 16 13 10 9 8 6 6 6 6 7 8 8 9 9
35 24 10 3 3 2 2 4 2 1 1 1 1 1 2 2 2 3 3 6 7 9 13 15 16 16 17 18 18 15 12 11 10 14 11 11 14 15 14 14 13 11 10 9 8 7 6 6 8 7 7 8 9 8
21 6 3 3 2 2 5 2 2 1 1 0 0 3 1 2 1 2 3 4 7 8 8 10 13 15 15 13 13 13 12 11 11 15 10 12 13 14 12 12 12 10 9 8 7 7 7 7 8 8 8 9 9 9
3 2 1 2 3 4 2 1 1 1 1 3 1 2 1 1 1 2 3 3 3 4 5 9 12 10 11 9 7 5 7 9 14 12 9 12 13 13 12 12 12 11 10 9 7 7 7 8 8 8 9 9 9 7
3 1 2 3 2 2 4 3 4 4 2 2 3 2 1 1 2 4 2 2 4 6 10 15 17 15 9 6 6 3 3 11 12 10 8 11 12 9 8 9 9 9 8 7 8 7 7 7 7 8 9 8 5 4
2 1 1 2 3 4 2 1 2 2 3 4 2 3 2 2 4 3 4 4 5 13 19 22 20 15 11 7 8 5 4 11 11 8 6 10 11 10 9 7 6 7 5 5 6 6 5 6 8 8 7 6 5 5
2 3 1 4 3 3 1 2 3 3 2 3 5 3 4 4 3 2 3 11 18 21 20 18 14 10 9 10 11 11 8 10 11 10 9 9 12 12 10 8 7 6 5 5 5 4 5 7 7 5 4 4 3 3
1 2 3 1 2 3 4 3 2 3 3 6 2 2 2 3 4 8 14 17 19 17 15 11 7 4 6 11 13 13 11 10 11 13 12 12 12 13 12 9 7 6 5 5 4 4 5 5 3 2 2 2 2 2
2 2 0 1 2 3 3 4 3 4 5 7 5 5 5 7 8 13 12 15 13 11 11 8 4 1 4 9 10 10 11 10 11 10 10 8 7 7 9 9 8 7 7 5 4 4 2 1 1 1 1 1 2 2
1 1 2 3 2 2 3 5 8 9 8 6 10 10 8 6 6 5 10 12 10 9 8 7 5 3 5 6 5 6 8 10 10 7 7 7 6 6 6 8 8 8 6 4 3 2 2 1 1 1 2 2 3 3
1 2 1 2 1 3 6 2 2 2 2 2 2 2 3 3 2 3 9 12 9 8 7 6 4 3 4 5 5 6 7 11 10 7 6 6 5 5 7 9 9 8 5 3 3 2 3 3 3 3 4 5 5 5
1 2 3 3 2 2 2 4 2 2 2 2 1 2 2 2 2 5 12 14 10 7 6 5 2 1 3 5 6 5 7 10 9 6 5 5 6 7 9 9 8 6 4 2 2 2 3 3 4 4 5 6 6 6

GFSWCAN_850_spd_297.txt.gz
Wind_Speed
34 35 35 34 34 33 35 34 31 32 27 27 23 22 23 21 15 16 19 16 19 14 27 31 17 14 17 18 3 10 11 2 1 2 2 4 2 4 2 2 5 6 5 3 3 4 8 8 6 4 1 2 3 4
35 35 35 36 36 36 35 33 31 28 28 23 22 22 22 22 17 16 20 19 18 19 29 38 38 35 32 29 24 9 8 4 7 3 2 2 3 1 3 11 4 4 7 4 8 6 2 16 3 6 6 6 6 6
36 36 37 37 38 37 35 32 30 29 26 21 21 19 17 19 18 16 20 18 20 20 27 17 11 34 26 19 14 11 8 8 8 16 4 5 10 3 3 5 3 3 3 3 1 5 4 10 11 11 12 12 7 6
40 38 38 38 37 35 33 32 29 27 23 21 20 18 19 18 17 17 19 17 18 12 7 17 14 10 14 16 18 22 28 26 24 14 6 3 4 6 3 4 3 4 5 4 5 4 2 1 4 6 8 7 8 9
43 40 39 37 36 33 34 31 27 26 23 20 19 18 18 18 17 16 18 22 24 16 6 19 29 32 25 21 18 20 23 24 13 4 4 3 3 1 2 1 2 3 3 2 3 2 2 1 3 3 5 7 9 8
39 37 37 35 33 33 30 27 25 23 19 18 19 17 16 14 16 14 5 6 1 4 6 4 6 11 13 11 11 10 10 9 6 4 3 4 2 2 2 2 2 8 11 10 4 11 9 4 4 4 4 5 8 9
39 37 34 31 30 27 27 25 23 21 21 20 20 16 16 16 16 11 7 8 15 23 5 5 4 2 6 5 4 4 3 3 5 4 3 3 1 2 2 2 1 8 12 12 8 6 2 1 0 2 2 7 10 11
34 34 32 30 29 25 25 23 22 22 22 22 21 13 16 18 19 16 20 23 19 9 6 3 4 3 4 2 2 2 3 2 3 3 4 2 3 1 3 2 4 7 9 5 7 5 1 1 5 7 6 8 13 11
35 33 31 30 29 25 24 21 21 20 22 20 11 13 17 12 4 4 7 8 10 8 3 3 2 3 4 2 2 2 2 2 2 0 1 3 2 3 4 5 8 8 6 7 3 3 5 6 8 9 9 10 9 8
34 33 29 28 27 27 26 23 19 20 24 10 8 6 4 4 6 8 3 2 1 4 5 3 2 2 3 5 2 3 0 1 2 2 5 1 3 11 3 3 7 6 5 2 6 4 5 8 9 9 8 6 4 3
36 33 30 24 24 23 23 22 20 20 14 8 5 5 6 5 4 1 1 3 3 2 6 4 5 1 2 1 1 2 1 1 2 3 2 2 3 2 4 7 1 4 3 5 3 5 5 5 7 8 7 6 4 3
36 35 30 24 21 21 20 20 19 19 11 8 4 5 5 2 3 2 2 1 1 4 4 3 3 3 1 1 1 1 0 2 3 3 1 3 3 2 5 2 3 5 7 5 7 6 8 8 7 6 5 4 2 2
33 35 29 23 23 22 19 19 19 22 15 7 4 2 2 2 2 5 4 4 2 5 7 5 0 2 2 1 0 2 1 3 3 1 3 4 3 5 2 6 8 9 8 7 8 8 8 6 6 4 2 2 2 2
29 29 27 23 24 22 20 19 19 23 9 6 6 3 4 3 4 4 3 1 2 2 9 6 3 2 2 1 1 1 2 2 2 2 4 2 3 2 7 9 10 13 9 9 9 7 5 4 3 3 3 2 2 2
28 27 26 24 25 22 21 16 30 26 7 5 5 4 5 6 3 2 1 2 3 7 7 4 2 2 0 0 1 1 2 3 4 4 2 3 4 4 11 12 12 13 12 11 8 6 5 4 3 2 3 3 2 1
24 24 26 25 26 24 17 30 32 16 8 6 5 2 3 1 2 3 3 4 4 8 6 2 2 2 3 3 1 5 2 5 3 3 3 5 7 7 13 14 13 12 12 10 8 5 5 4 3 3 3 2 0 1
22 24 27 26 28 22 25 33 18 6 6 5 5 12 9 5 6 4 6 5 8 9 2 3 3 7 1 1 3 4 4 3 3 6 10 12 11 9 14 16 15 14 14 11 8 6 6 4 3 3 2 1 2 3
21 31 23 27 29 37 27 10 6 6 5 7 3 6 11 8 6 7 7 9 13 8 5 3 4 3 4 4 3 3 9 6 6 9 12 11 7 12 15 17 15 15 14 11 9 8 7 5 4 3 3 3 4 5
27 24 25 32 39 21 5 4 5 5 6 3 5 6 5 6 11 12 10 10 14 8 3 3 2 3 4 5 3 2 2 4 6 11 12 8 8 14 14 16 16 16 14 11 9 7 6 5 5 5 4 4 6 7
22 24 27 32 35 7 5 4 6 2 3 4 5 4 4 4 5 7 12 13 15 5 4 3 4 4 4 5 8 8 7 7 10 13 13 8 11 15 15 16 16 15 13 12 11 9 8 7 7 6 5 6 7 7
38 37 38 37 19 8 5 5 4 3 4 4 4 3 2 3 4 4 5 13 9 6 2 11 13 13 12 15 17 15 13 13 15 14 13 8 12 16 15 15 15 15 13 11 10 9 8 7 7 6 6 7 7 7
35 31 31 18 5 4 4 4 4 5 2 3 3 2 2 1 3 4 5 8 6 8 8 6 11 17 18 16 15 14 14 15 15 14 11 12 13 19 20 18 17 16 13 11 10 8 7 7 6 7 7 7 7 7
28 20 8 5 4 2 2 5 2 1 2 1 1 1 2 2 3 4 3 6 7 8 11 14 15 17 19 18 17 19 18 16 14 12 12 12 10 15 15 15 15 14 12 11 9 8 8 7 7 6 6 6 7 7
14 4 3 3 3 2 4 2 2 2 1 1 2 2 2 2 2 2 3 4 6 6 6 7 9 15 17 14 13 12 10 13 12 10 13 11 12 14 14 13 13 12 10 10 9 8 8 8 7 8 7 7 7 7
2 3 2 4 3 4 3 2 3 3 1 2 1 2 2 2 0 2 3 3 3 3 5 7 11 15 17 16 10 7 6 8 9 11 12 10 12 13 14 13 13 13 12 11 9 8 7 8 8 7 8 8 8 7
4 1 2 4 1 2 4 2 3 4 3 2 3 2 2 1 1 4 2 2 4 7 9 15 22 24 18 10 8 5 4 5 10 12 8 9 12 11 10 11 11 10 10 9 9 8 6 6 6 7 7 7 5 3
2 2 2 2 3 3 1 1 2 2 2 4 2 2 1 1 3 2 3 4 5 12 20 23 22 19 17 10 10 8 3 7 9 7 5 8 11 11 9 7 6 7 6 6 7 6 4 4 5 6 6 5 4 4
2 2 2 3 3 3 2 2 3 4 2 3 5 2 3 4 2 2 2 10 18 20 20 18 16 14 11 9 11 9 6 8 10 9 7 7 11 11 10 8 7 6 5 5 6 5 3 4 5 5 4 3 2 2
1 2 2 1 1 3 4 3 2 2 3 5 2 2 2 2 3 7 12 16 18 17 17 14 11 8 5 5 10 10 9 8 9 9 8 7 9 11 11 9 7 6 5 5 5 3 3 4 3 3 2 2 1 1
1 2 1 1 2 3 2 3 2 3 4 6 5 4 4 5 6 9 10 13 12 13 14 14 10 6 2 3 5 7 8 7 8 7 6 5 5 5 8 8 8 6 6 6 4 2 1 1 1 1 2 1 1 2
1 1 2 3 3 2 3 6 8 8 7 5 8 8 6 5 5 4 9 16 12 12 12 10 8 4 3 2 3 4 4 7 7 4 4 5 6 5 6 8 8 8 7 5 2 1 1 1 1 1 1 1 1 2
1 1 1 2 2 3 7 3 3 2 2 2 1 2 2 2 2 4 9 14 11 9 10 10 7 4 2 1 2 3 3 7 9 6 5 6 5 6 7 9 9 9 7 4 2 2 2 2 2 2 2 2 3 4
1 1 2 3 2 2 3 5 2 3 1 1 1 2 2 2 2 5 11 13 18 10 8 7 5 4 1 1 1 1 2 6 8 6 4 4 5 6 8 10 10 8 6 3 2 2 2 3 3 3 4 4 5 5

GFSWCAN_850_spd_303.txt.gz
Wind_Speed
36 35 33 33 34 34 34 34 33 33 32 31 29 26 24 25 22 20 21 19 19 17 21 25 22 15 11 8 3 6 7 2 2 3 2 4 3 4 1 4 4 4 3 3 2 1 6 7 4 5 3 3 3 4
36 35 35 35 34 35 35 35 35 33 33 31 31 27 26 25 22 19 21 20 17 17 15 17 23 27 30 30 23 7 8 5 5 1 1 3 3 1 5 8 2 3 7 3 6 5 2 10 1 4 3 4 5 5
35 35 34 35 35 34 33 34 35 37 33 31 29 25 25 24 22 21 21 17 16 18 23 20 15 9 15 18 20 13 11 15 9 18 6 4 5 2 2 5 2 3 2 3 1 1 2 3 10 6 4 5 4 4
35 34 33 32 30 29 30 31 32 31 30 29 28 25 24 23 22 18 17 16 17 8 6 10 14 12 12 10 10 17 25 22 22 13 6 4 3 6 2 3 4 4 4 3 4 3 2 5 6 5 3 6 4 4
33 32 32 32 32 30 29 29 28 28 27 26 25 24 21 19 19 17 16 18 18 13 5 11 24 25 19 21 21 19 22 24 15 5 4 3 3 2 2 1 3 1 0 1 2 5 3 5 8 5 4 5 5 5
36 36 35 34 32 31 29 28 27 23 22 19 19 19 17 17 13 11 5 9 14 17 5 3 6 10 10 11 8 8 12 12 8 4 3 4 2 2 2 2 2 2 1 2 3 9 9 9 6 6 4 2 4 4
38 38 37 36 35 32 30 28 24 21 18 18 18 15 14 16 17 11 5 1 3 7 4 5 6 3 3 4 2 2 3 3 4 3 3 2 2 5 2 2 3 3 2 4 4 7 3 2 2 2 2 5 6 8
40 38 36 34 33 33 30 28 21 18 16 14 13 12 13 12 12 13 12 11 11 9 4 2 4 3 1 1 1 1 2 2 4 2 2 2 4 1 3 6 8 4 4 5 6 3 2 0 4 5 6 7 9 10
38 36 34 33 32 30 29 27 19 17 13 12 12 11 12 12 7 5 7 8 12 7 3 3 3 3 1 1 1 1 1 1 1 0 1 1 2 4 5 6 9 7 4 5 1 2 3 5 5 6 6 8 7 7
38 37 34 32 29 27 28 27 18 14 10 12 8 6 4 5 6 4 3 2 3 6 6 3 3 2 1 1 0 1 1 0 1 3 4 1 3 10 10 9 8 7 5 5 6 3 6 6 6 6 6 5 3 2
38 35 32 30 28 24 21 22 16 13 13 8 5 6 6 7 6 3 2 2 2 2 5 4 7 1 1 1 1 2 1 1 2 3 2 2 3 3 5 4 5 5 7 5 5 3 5 5 7 8 7 6 4 3
36 33 30 27 24 21 20 20 17 19 12 8 6 7 7 4 2 2 1 2 2 3 3 3 2 3 1 1 2 2 1 2 2 1 3 3 3 4 5 5 5 8 7 6 5 6 7 8 8 7 6 5 4 3
34 31 28 24 21 18 18 20 21 22 16 12 4 4 3 1 2 4 4 3 2 4 5 4 1 1 2 1 3 2 2 2 2 2 3 4 3 4 6 5 9 10 10 7 8 7 8 8 7 6 5 4 4 3
31 26 24 21 17 17 17 24 23 22 17 5 7 3 4 2 4 4 3 2 2 2 8 6 3 1 1 2 1 1 1 2 1 2 4 2 2 4 5 7 10 11 11 9 9 9 8 6 6 5 4 4 3 3
20 19 18 17 16 16 19 30 22 25 7 5 5 3 5 6 3 2 7 2 1 7 8 4 4 1 2 2 0 2 2 3 4 3 2 2 2 7 6 8 12 12 12 12 11 9 7 6 5 4 4 4 3 3
11 12 14 15 17 17 29 32 26 16 7 6 4 2 1 3 1 6 7 3 4 9 5 3 2 3 2 3 1 5 3 5 3 2 2 5 8 10 9 8 12 13 12 13 12 9 7 6 5 5 4 3 3 4
11 6 13 19 19 28 27 26 9 4 5 5 2 6 9 1 3 6 9 6 11 8 2 4 3 6 1 2 3 3 4 2 2 3 6 9 12 14 11 10 16 16 16 16 13 10 8 7 6 6 5 4 4 5
9 10 22 28 32 33 18 6 4 4 3 4 3 5 9 5 5 7 8 8 11 6 7 3 5 2 4 4 3 3 6 7 8 8 9 12 15 16 12 11 17 18 17 16 13 11 9 8 7 6 7 6 5 6
22 24 27 29 27 13 4 3 2 3 2 2 3 5 4 3 7 6 6 6 12 6 3 3 2 3 4 4 3 3 7 9 12 14 15 12 14 16 11 11 17 18 18 17 15 11 8 8 8 8 8 7 6 7
29 29 27 24 17 5 4 3 3 2 3 3 3 3 2 2 2 5 9 10 13 5 3 3 4 4 4 1 5 12 17 18 18 19 19 16 14 14 10 11 16 17 17 17 15 14 12 11 10 9 8 8 7 7
21 19 17 15 11 6 4 2 3 3 3 2 2 2 1 1 2 3 4 9 8 5 3 10 11 8 8 11 13 17 18 18 19 19 21 19 16 15 11 12 15 17 17 17 16 13 12 9 8 8 8 8 7 8
14 13 8 4 3 3 3 3 3 2 1 2 1 1 1 1 1 2 2 6 5 6 7 4 6 8 14 13 13 16 21 23 20 19 18 18 19 19 13 14 16 17 18 17 14 11 8 7 9 9 8 8 8 7
6 5 2 2 1 2 1 2 0 2 2 2 2 2 2 2 0 1 3 5 6 6 8 10 12 13 13 14 18 22 24 20 19 17 18 17 17 16 13 11 15 16 16 14 12 11 10 10 10 9 9 8 7 7
1 2 1 2 3 1 2 2 2 2 1 2 2 3 2 1 0 0 2 4 4 5 6 7 10 13 15 18 25 26 19 15 15 14 11 10 11 10 9 10 13 14 12 11 12 12 11 11 10 9 8 8 8 8
3 2 2 3 2 3 4 3 4 3 1 1 2 2 2 1 1 1 2 3 3 4 6 10 13 19 24 27 24 18 13 12 13 11 5 7 6 7 8 10 11 13 14 15 13 11 11 11 10 9 9 9 9 9
0 1 1 3 1 1 3 0 2 2 2 1 3 1 1 1 0 4 2 2 4 7 13 21 25 26 25 21 22 19 12 8 9 5 0 3 3 3 4 7 9 10 13 13 13 11 10 10 10 9 9 9 9 8
1 3 1 2 2 2 0 1 1 1 2 3 2 2 1 1 3 1 2 3 7 16 20 20 20 21 23 20 15 11 7 4 4 4 2 3 4 7 8 7 7 8 7 10 11 10 9 9 8 8 8 9 8 8
2 5 3 4 3 3 2 1 3 3 2 3 5 2 3 4 2 1 2 9 15 17 17 17 20 18 17 15 11 4 2 2 3 3 1 1 4 7 7 7 7 6 7 6 8 9 9 8 7 7 7 7 7 7
2 3 3 1 2 4 5 4 3 3 3 5 2 2 2 2 2 4 9 12 15 18 16 15 12 12 11 10 5 2 1 1 2 2 0 2 3 6 6 6 5 6 7 6 7 8 7 6 6 6 6 6 6 6
2 4 2 2 2 3 3 5 3 3 4 6 5 4 4 5 6 8 8 10 14 14 13 15 15 12 11 9 5 2 1 1 1 0 0 1 1 3 6 8 7 7 6 6 6 7 6 5 4 4 4 4 5 5
2 3 2 3 3 2 3 5 7 9 8 6 8 8 5 4 5 5 5 11 15 18 14 11 10 11 9 7 6 4 2 2 4 3 3 3 3 4 5 9 9 7 7 7 6 5 3 2 2 2 3 4 4 5
3 3 2 1 1 2 5 2 2 1 1 1 1 1 2 2 2 2 5 13 12 16 14 12 12 9 7 6 6 5 5 5 5 5 4 5 5 5 5 8 9 9 9 9 7 5 3 2 2 2 3 4 5 6
2 3 3 2 2 1 2 4 1 2 2 1 1 1 1 1 2 3 11 12 17 18 14 11 9 7 6 6 6 7 7 6 4 4 4 4 5 5 5 8 10 10 10 8 6 4 3 3 3 4 5 6 7 8

GFSWCAN_850_spd_306.txt.gz
Wind_Speed
40 40 37 36 36 35 35 35 35 34 35 34 34 30 30 28 26 20 25 27 30 15 25 25 25 14 5 6 3 4 3 2 2 2 2 3 2 4 1 4 4 5 3 3 1 1 6 5 4 4 3 5 5 4
40 38 36 35 35 35 35 35 31 32 32 32 34 34 31 29 25 19 28 29 24 24 20 23 16 24 24 24 20 10 6 6 6 1 1 2 2 1 4 7 2 3 6 3 7 5 1 6 2 1 2 2 2 4
39 37 34 33 32 31 31 31 29 28 27 28 29 28 27 25 22 21 25 28 19 14 23 23 17 5 15 17 20 16 7 11 9 12 3 4 4 3 3 5 2 4 4 3 1 1 2 4 3 7 5 6 3 3
36 34 33 33 33 33 33 32 31 30 29 27 26 26 25 23 21 19 21 25 11 6 5 8 15 12 10 14 16 22 27 13 12 10 7 4 2 5 3 3 4 4 5 3 4 3 3 0 7 5 5 5 4 3
37 37 36 35 36 36 35 34 32 29 27 25 24 22 20 20 19 19 20 20 12 11 4 9 22 24 17 14 14 15 16 21 16 6 4 2 3 2 2 1 3 4 3 2 2 1 2 4 9 9 7 4 3 3
38 37 37 38 37 35 34 33 31 30 27 21 20 19 16 17 16 14 4 11 18 17 6 3 4 6 10 9 10 11 13 12 8 4 3 4 2 2 2 2 4 4 4 2 2 6 8 10 8 7 4 2 3 4
41 39 37 36 35 34 33 31 29 27 26 18 16 16 14 11 11 8 5 2 6 6 3 4 4 2 3 3 1 1 3 3 4 2 3 2 2 5 1 2 3 7 3 4 4 7 3 2 1 3 3 5 5 7
42 39 37 34 32 31 30 28 27 26 23 14 12 12 10 10 9 9 14 13 10 5 4 1 4 2 1 1 1 1 2 2 2 2 2 1 4 2 3 7 8 7 4 4 4 4 2 1 3 5 5 6 8 9
40 38 36 33 32 31 29 25 24 22 18 11 11 8 7 7 4 6 10 8 14 7 3 2 2 3 0 1 1 1 1 1 2 0 1 1 1 4 6 7 8 10 5 3 2 2 3 5 5 6 7 8 7 7
41 39 36 33 31 30 27 23 19 20 14 12 8 3 3 2 3 4 2 2 3 3 4 2 3 2 1 1 1 1 2 1 1 2 3 1 3 11 11 9 7 7 7 6 7 5 7 8 8 8 9 8 7 5
43 39 36 33 31 28 25 20 14 11 18 14 7 5 4 6 4 2 1 1 2 3 4 3 6 1 1 1 1 2 1 1 1 2 2 2 3 3 2 4 5 7 9 7 7 3 5 5 8 9 8 7 4 4
40 37 33 31 28 25 22 16 14 19 18 12 7 9 7 3 2 2 1 2 1 3 2 1 1 2 1 1 2 2 1 1 2 1 2 2 3 5 4 5 5 6 8 7 6 5 6 8 9 8 7 6 5 4
36 32 31 26 23 21 18 16 14 26 20 13 4 4 3 1 3 4 3 3 2 3 4 3 0 1 2 1 3 1 1 2 2 1 3 4 6 7 6 8 7 9 10 8 7 7 8 8 8 7 6 5 5 5
25 21 17 15 15 15 15 14 23 27 15 4 6 3 4 1 4 4 3 3 2 2 5 5 3 1 1 2 1 1 0 1 1 1 4 2 4 6 8 6 8 10 11 9 9 8 9 8 7 6 6 6 5 5
12 10 4 6 10 13 17 19 25 22 4 4 5 3 3 5 1 1 6 2 2 5 7 4 3 1 2 2 1 1 1 3 4 3 2 2 4 9 10 8 7 11 12 11 11 10 10 8 7 7 6 5 4 4
12 9 6 2 15 17 26 31 22 14 2 3 3 4 2 2 1 3 6 5 4 8 4 2 2 3 2 3 2 5 2 4 2 2 4 6 8 10 12 11 8 11 13 12 12 12 10 9 7 7 6 5 5 4
16 18 17 17 19 31 33 23 11 3 1 2 1 5 8 2 4 5 8 6 9 7 2 3 3 6 1 2 2 3 4 2 3 7 9 10 14 16 17 15 11 14 16 15 15 14 11 10 8 7 7 6 5 5
20 15 16 12 19 33 16 5 3 2 2 1 1 3 10 5 3 4 7 8 10 6 6 3 5 2 4 4 3 3 5 6 8 10 13 14 16 16 17 18 12 14 17 17 16 14 13 11 9 7 8 7 6 6
19 18 16 19 19 6 3 2 2 1 1 1 2 3 3 2 5 4 6 7 9 5 2 3 2 3 3 5 3 0 5 11 16 18 18 17 19 19 17 17 13 13 17 17 17 16 12 10 8 9 9 8 7 7
12 17 18 15 6 3 2 1 2 1 1 1 2 2 1 1 1 5 7 9 11 4 2 2 4 3 4 1 2 7 11 13 16 21 25 22 18 18 16 15 11 11 16 17 17 16 15 13 11 10 9 8 8 7
7 7 6 1 2 5 1 2 0 1 1 1 0 1 1 1 1 3 6 8 6 4 2 8 9 9 7 10 11 15 14 15 18 21 25 25 21 18 15 14 11 11 15 17 18 17 16 13 8 9 9 8 7 8
3 2 3 5 3 1 1 2 2 1 1 0 0 2 1 1 1 2 1 4 5 5 5 5 8 11 13 17 18 16 17 21 25 26 21 18 20 20 19 18 13 13 16 18 17 16 12 9 10 10 9 8 8 8
2 4 4 3 2 1 1 1 1 2 2 2 2 2 2 1 0 1 3 5 5 5 7 10 13 14 16 16 17 16 22 26 24 20 18 17 16 15 15 14 13 13 14 14 14 13 12 11 11 9 9 9 8 8
4 3 3 2 1 1 1 1 1 1 1 3 2 3 2 1 1 0 2 3 3 4 7 9 11 15 18 22 24 23 20 19 18 15 13 13 11 8 10 10 11 11 11 10 13 13 13 12 11 10 9 8 8 8
3 3 2 2 0 2 3 4 4 3 1 1 1 2 2 0 2 1 2 2 2 4 7 11 19 22 23 25 23 21 17 15 14 13 7 8 7 6 4 5 7 9 13 13 13 13 13 12 11 10 9 9 8 8
2 3 2 4 2 3 4 1 2 3 2 1 3 1 0 1 1 4 2 2 4 7 14 22 23 24 23 21 23 21 15 11 9 10 4 3 4 4 3 2 4 5 9 10 12 11 10 10 10 9 9 9 9 8
3 5 4 4 2 2 0 1 1 1 2 3 2 2 1 1 4 1 2 3 6 15 18 19 19 20 22 22 18 15 11 7 7 5 4 6 6 4 3 3 3 5 3 7 10 10 9 8 8 8 8 9 9 8
4 8 4 7 5 4 3 1 3 4 3 4 5 3 4 4 2 1 2 7 13 16 17 16 17 18 17 16 14 9 4 5 4 1 3 4 0 2 3 3 3 2 5 4 7 10 9 7 7 7 7 7 8 8
4 5 6 1 2 4 6 5 4 4 3 6 2 2 2 2 3 3 8 11 13 16 16 12 11 11 10 12 9 5 5 6 4 2 3 3 2 1 4 4 4 4 5 6 6 7 7 7 6 6 6 6 6 7
4 8 3 3 3 4 3 6 3 4 5 6 4 4 4 6 8 9 9 8 11 14 17 15 15 14 11 10 7 6 4 4 3 4 3 2 3 4 4 7 6 6 6 5 6 7 7 6 4 4 4 4 5 5
4 6 3 4 3 2 3 4 6 8 8 6 9 9 6 5 6 6 5 7 14 16 17 12 9 12 10 8 7 6 5 5 6 7 7 6 7 7 6 6 7 7 6 6 6 5 3 3 2 2 2 3 4 5
5 5 4 2 2 2 4 2 2 2 2 2 2 3 2 3 2 2 3 11 11 14 13 12 10 8 7 7 7 7 8 8 8 7 6 6 7 7 6 5 7 7 7 8 8 6 3 2 1 2 3 4 5 5
3 4 4 2 1 2 1 2 1 2 2 2 2 2 2 2 1 2 8 11 15 15 14 12 8 6 6 6 7 8 10 10 9 6 5 6 7 7 5 5 7 8 8 8 7 5 3 2 2 3 4 5 6 7